TOURFACTS.DK  
Stats and Facts from Tour de France.

Tour de France 2019 starts in 348 days
  Riders   Stages   Teams   Summits   Yearly  


 
Search by year

After 2018 - Stage 14:
 15000 starters.
  5163 different riders.
  639 teams.
  2246 stages.
  456 restdays.
  441957.60 km.
  5678 abandonnees.


Top 3
GC
Christopher Froome86:20:55
Rigoberto Urán86:21:49
Romain Bardet86:23:15
Climb
Warren Barguil169 pt.
Primoz Roglic80 pt.
Thomas De Gendt64 pt.
Sprint
Michael Matthews359 pt.
André Greipel234 pt.
Edvald Boasson Hagen220 pt.
Youth
Simon Yates86:27:09
Louis Meintjes86:29:15
Emanuel Buchmann86:54:16
Facts from Tour de France 1994
  |   Stages.  |   Stage winners.  |   Days in yellow  |   Average speed.  |   Route.  |   Teams.  |   All riders.  |   Rookies.  |  

  |   Withdrawls.  |   GC.  |   Polka  |   Green  |   White  |   Summits. (In tour)  |   Miscellaneous.  |  

Stage 17 on July 20th. 1994
         Owning:    Miguel Indurain    
Pick a stage:  Pro 1 2 3 4 5 6 7 8 9 10 11 12 13 14 15 16 17 18 19 20 21
From: Bourg-d´Oisans    To: Val-ThorensDist:149.00 km.
Cat: 1Col du GlandonMARRichard Virenque
30 points
 
Cat: 1Col de la MadeleineURSPiotr Ugrumov
30 points
 
Cat: HVal Thorens - MoutiersCOLNelson Rodriguez
40 points
 

Average speed for all riders in stage:  26,812 km./hr.
    Place:Name:Team:Time:Km/h:
COLNelson RodriguezITAZG Mobili-Selle Italia05:13:52  +  00:00:00=28,483 
URSPiotr UgrumovITAGewiss-Ballan05:13:52  +  00:00:00=28,483 
ITAMarco PantaniITACarrera Jeans-Tassoni05:15:00  +  00:01:08=28,381 
4 MARRichard VirenqueESPFestina-Andorra05:16:29  +  00:02:37=28,248 
5 ESPMiguel IndurainESPBanesto05:16:29  +  00:02:37=28,248 
6 SUIAlex ZülleESPO.N.C.E.05:16:29  +  00:02:37=28,248 
7 FRALuc LeblancESPFestina-Andorra05:16:32  +  00:02:40=28,243 
8 ITARoberto ContiITALampre-Panaria05:16:36  +  00:02:44=28,238 
9 COLHernán BuenahoraESPKelme-Avianca05:16:37  +  00:02:45=27,240 
10 GERUdo BöltsDEUTelecom05:16:44  +  00:02:52=28,226 
11 ITAAlberto ElliITAGB-MG Maglificio05:16:44  +  00:02:52=28,226 
12 ESPFernando EscartinBELMapei-Clas05:16:44  +  00:02:52=28,226 
13 DENRolf SřrensenITAGB-MG Maglificio05:17:05  +  00:03:13=28,194 
14 ITAOscar PelliccioliITAPolti-Vaporetto05:17:39  +  00:03:47=28,144 
15 FRAPascal LinoESPFestina-Andorra05:17:53  +  00:04:01=28,124 
16 ITAFranco ChioccioliITAMercatone Uno-Medeghini05:18:02  +  00:04:10=28,110 
17 COLFederico FernandezESPKelme-Avianca05:18:04  +  00:04:12=28,107 
18 ITAGianluca BortolamiBELMapei-Clas05:18:30  +  00:04:38=28,069 
19 FRAThomas DavyFRACastorama05:18:30  +  00:04:38=28,069 
20 DENBjarne RiisITAGewiss-Ballan05:19:34  +  00:05:42=27,975 
21 FRACharly MottetFRANovemail-Histor-Laser Computer05:20:13  +  00:06:21=27,919 
22 FRAÉric CaritouxFRAChazal-MBK-Konig05:21:14  +  00:07:22=27,830 
23 NEDErik BreukinkESPO.N.C.E.05:21:56  +  00:08:04=27,770 
24 DENBo HamburgerNLDTVM-Bison05:21:56  +  00:08:04=27,770 
25 BELJim Van De LaerBELLotto-Veta-Caloi05:22:43  +  00:08:51=27,702 
26 ITAFlavio VanzellaITAGB-MG Maglificio05:23:01  +  00:09:09=27,677 
27 URSVladimir PoulnikovITACarrera Jeans-Tassoni05:24:07  +  00:10:15=27,583 
28 DDRGerd AudehmDEUTelecom05:25:55  +  00:12:03=27,430 
29 ESPRamon GonzalezESPBanesto05:25:55  +  00:12:03=27,430 
30 FRAJean-François BernardESPBanesto05:25:55  +  00:12:03=27,430 
31 ESPArsenio GonzálezBELMapei-Clas05:25:55  +  00:12:03=27,430 
32 SUIBeat ZbergITACarrera Jeans-Tassoni05:25:55  +  00:12:03=27,430 
33 SUILaurent DufauxESPO.N.C.E.05:25:55  +  00:12:03=27,430 
34 ITADavide PeronaITAZG Mobili-Selle Italia05:27:39  +  00:13:47=27,285 
35 ITAFranco VonaITAGB-MG Maglificio05:28:53  +  00:15:01=27,183 
36 ITAEnrico ZainaITAGewiss-Ballan05:29:45  +  00:15:53=27,111 
37 ESPFederico EchaveBELMapei-Clas05:30:08  +  00:16:16=27,080 
38 ENGSean YatesUSAMotorola05:33:54  +  00:20:02=26,774 
39 ITAMassimo GhirottoITAZG Mobili-Selle Italia05:33:54  +  00:20:02=26,774 
40 ITABruno CenghialtaITAGewiss-Ballan05:33:54  +  00:20:02=26,774 
41 ITAGiancarlo PeriniITAZG Mobili-Selle Italia05:33:54  +  00:20:02=26,774 
42 ITAMauro-Antonio SantaromitaITAZG Mobili-Selle Italia05:33:54  +  00:20:02=26,774 
43 ITAGiorgio FurlanITAGewiss-Ballan05:33:54  +  00:20:02=26,774 
44 URSVladislav BobrikITAGewiss-Ballan05:33:54  +  00:20:02=26,774 
45 FRAFrançois SimonFRACastorama05:33:54  +  00:20:02=26,774 
46 DENJesper SkibbyNLDTVM-Bison05:33:54  +  00:20:02=26,774 
47 FRAJean-Claude BagotESPFestina-Andorra05:33:54  +  00:20:02=26,774 
48 FRAArmand De Las CuevasFRACastorama05:33:54  +  00:20:02=26,774 
49 AUSNeil StephensESPO.N.C.E.05:33:54  +  00:20:02=26,774 
50 ESPJosé UriarteESPBanesto05:33:54  +  00:20:02=26,774 
51 BELCarlo BomansITAGB-MG Maglificio05:33:54  +  00:20:02=26,774 
52 GERRolf AldagDEUTelecom05:33:54  +  00:20:02=26,774 
53 URSViatcheslav EkimovBELWordperfect05:33:54  +  00:20:02=26,774 
54 SUIRolf JärmannITAGB-MG Maglificio05:33:54  +  00:20:02=26,774 
55 ITADavide CassaniITAGB-MG Maglificio05:34:50  +  00:20:58=26,700 
56 NORDag Otto LauritzenNLDTVM-Bison05:35:01  +  00:21:09=26,685 
57 ESPVicente AparicioESPBanesto05:35:06  +  00:21:14=26,679 
58 BELJohan MuseeuwITAGB-MG Maglificio05:35:14  +  00:21:22=26,668 
59 BELMarc WautersBELWordperfect05:39:46  +  00:25:54=26,312 
60 URSDjamolidine AbduzhaparovITAPolti-Vaporetto05:39:46  +  00:25:54=26,312 
61 URSSerguei OutschakovITAPolti-Vaporetto05:39:46  +  00:25:54=26,312 
62 FRARonan PensecFRANovemail-Histor-Laser Computer05:39:46  +  00:25:54=26,312 
63 GERChristian HennDEUTelecom05:39:46  +  00:25:54=26,312 
64 ESPFrancisco CabelloESPKelme-Avianca05:39:46  +  00:25:54=26,312 
65 NEDErwin NijboerESPBanesto05:39:46  +  00:25:54=26,312 
66 DDROlaf LudwigDEUTelecom05:39:46  +  00:25:54=26,312 
67 ITARemo RossiITACarrera Jeans-Tassoni05:39:46  +  00:25:54=26,312 
68 ITAGiovanni FidanzaITAPolti-Vaporetto05:39:46  +  00:25:54=26,312 
69 ESPRaúl AlcaláUSAMotorola05:39:46  +  00:25:54=26,312 
70 FRAEddy SeigneurFRAGan05:39:46  +  00:25:54=26,312 
71 DDRUwe RaabDEUTelecom05:39:46  +  00:25:54=26,312 
72 ITAAndrea PeronITAPolti-Vaporetto05:39:46  +  00:25:54=26,312 
73 NORAtle KvĺlsvollBELWordperfect05:39:46  +  00:25:54=26,312 
74 COLJulio-César CadenaESPKelme-Avianca05:39:46  +  00:25:54=26,312 
75 ITAGuido BontempiITAGewiss-Ballan05:39:46  +  00:25:54=26,312 
76 ENGPhil AndersonUSAMotorola05:39:46  +  00:25:54=26,312 
77 FRAFrancis MoreauFRAGan05:39:46  +  00:25:54=26,312 
78 SUIJörg MüllerBELMapei-Clas05:39:46  +  00:25:54=26,312 
79 FRAGérard RuéESPBanesto05:39:46  +  00:25:54=26,312 
80 FRAPascal ChanteurFRAChazal-MBK-Konig05:39:46  +  00:25:54=26,312 
81 SVKJán SvoradaITALampre-Panaria05:39:46  +  00:25:54=26,312 
82 URSAndrei TchmilBELLotto-Veta-Caloi05:39:46  +  00:25:54=26,312 
83 FRARoberto TorresESPFestina-Andorra05:39:46  +  00:25:54=26,312 
84 BELMarc SergeantFRANovemail-Histor-Laser Computer05:39:46  +  00:25:54=26,312 
85 ESPHerminio ZabalaESPO.N.C.E.05:39:46  +  00:25:54=26,312 
86 NZLStephen SwartUSAMotorola05:39:46  +  00:25:54=26,312 
87 DDRJens HeppnerDEUTelecom05:39:46  +  00:25:54=26,312 
88 BELLuc RoosenBELLotto-Veta-Caloi05:39:46  +  00:25:54=26,312 
89 BELPeter De ClercqBELLotto-Veta-Caloi05:39:46  +  00:25:54=26,312 
90 FRAChristophe ManinFRAChazal-MBK-Konig05:39:46  +  00:25:54=26,312 
91 MEXMiguel ArroyoFRAChazal-MBK-Konig05:39:46  +  00:25:54=26,312 
92 NEDGerrit De VriesFRANovemail-Histor-Laser Computer05:39:46  +  00:25:54=26,312 
93 ITAMarco ZenITALampre-Panaria05:39:46  +  00:25:54=26,312 
94 FRAThierry GouvenouFRAGan05:39:46  +  00:25:54=26,312 
95 ITAMario ChiesaITACarrera Jeans-Tassoni05:39:46  +  00:25:54=26,312 
96 FRAThierry MarieFRACastorama05:39:46  +  00:25:54=26,312 
97 URSArturas KasputisFRAChazal-MBK-Konig05:39:46  +  00:25:54=26,312 
98 NEDErik DekkerBELWordperfect05:39:46  +  00:25:54=26,312 
99 ESPMelchor MauriESPBanesto05:39:46  +  00:25:54=26,312 
100 ESPAbraham OlanoBELMapei-Clas05:39:46  +  00:25:54=26,312 
101 ITARosario FinaITAMercatone Uno-Medeghini05:39:46  +  00:25:54=26,312 
102 COLAlvaro MejiaUSAMotorola05:39:46  +  00:25:54=26,312 
103 FRABruno ThiboutFRACastorama05:39:46  +  00:25:54=26,312 
104 ESPAlberto LeanizbarrutiaESPO.N.C.E.05:39:46  +  00:25:54=26,312 
105 BELMichel VermoteESPFestina-Andorra05:39:46  +  00:25:54=26,312 
106 USAFrankie AndreuUSAMotorola05:39:46  +  00:25:54=26,312 
107 FRAPhilippe LouviotFRANovemail-Histor-Laser Computer05:39:46  +  00:25:54=26,312 
108 DDRMario KummerDEUTelecom05:39:46  +  00:25:54=26,312 
109 BELMichel DerniesUSAMotorola05:39:46  +  00:25:54=26,312 
110 ITAMario MantovanITACarrera Jeans-Tassoni05:39:46  +  00:25:54=26,312 
111 BELMario De ClercqBELLotto-Veta-Caloi05:39:46  +  00:25:54=26,312 
112 ESPÁngel EdoESPKelme-Avianca05:39:46  +  00:25:54=26,312 
113 POLCesary ZamanaESPKelme-Avianca05:39:46  +  00:25:54=26,312 
114 AUSStephen HodgeESPFestina-Andorra05:39:46  +  00:25:54=26,312 
115 URSDimitri ZhdanovITAPolti-Vaporetto05:39:46  +  00:25:54=26,312 
116 FRAPascal HerveESPFestina-Andorra05:39:46  +  00:25:54=26,312 
117 BELRudy VerdonckBELLotto-Veta-Caloi05:40:01  +  00:26:09=26,293 
118 NEDJohn TalenITAMercatone Uno-Medeghini05:40:22  +  00:26:30=26,266 
119 BELHendrik RedantITAZG Mobili-Selle Italia05:42:13  +  00:28:21=26,124 
120 NEDRob MuldersBELWordperfect05:42:30  +  00:28:38=26,102 
121 BELGuy NulensFRANovemail-Histor-Laser Computer05:42:52  +  00:29:00=26,074 
122 BELEric Van LanckerBELWordperfect05:43:23  +  00:29:31=26,035 
123 ITAEros PoliITAMercatone Uno-Medeghini05:43:23  +  00:29:31=26,035 
124 COLAngel OchoaESPKelme-Avianca05:45:29  +  00:31:37=25,877 
125 ITADario BottaroITAGewiss-Ballan05:45:43  +  00:31:51=25,859 

Withdrawls: 2
 
Rider
Team
Reason
2  ESPMarino MonjeESPBanestoDid not finish
97  NEDJean-Paul van PoppelESPFestina-AndorraDid not finish

Todays birthdays.

1877  Antoine Perrichon
1878  Auguste Berthault
1911  Théo Herckenrath
1924  Carlo Lafranchi
1931  Armand Di Caro
1937  Jean-Claude Lebaube
1951  Giovanni Battaglin
1961  Pascal Jules
1962  Jean-Claude Leclercq
1976  Janek Tombak
1978  Francisco Pérez
1983  Dries Devenyns




Visits: